Location: Penton Mewsey
(51.2167°N, 1.5167°W)
Time: 11:11:52
(UTC+00:00)

CZ-2C R/B - Pass Details

Date: 30 March 2020
Orbit: 639 x 705 km, 98.4° (Epoch: 26 May)

Event Time Altitude Azimuth Distance (km) Brightness Sun altitude
Rises 19:41:40 0° 19° (NNE) 3,109 7.2 -10.7°
Reaches altitude 10° 19:44:02 10° 25° (NNE) 2,182 6.3 -11.0°
Maximum altitude 19:48:38 46° 99° (E) 939 4.1 -11.7°
Drops below altitude 10° 19:53:09 10° 173° (S) 2,139 6.0 -12.4°
Sets 19:55:27 0° 179° (S) 3,041 6.9 -12.7°
